Regional Weather Roundup
Issued by NWS

Home | Current Version | Previous Version | Text Only | Print | Product List | Glossary Off
Versions: 1 2 3 4 5 6 7 8 9 10 11 12 13 14 15 16 17 18 19 20 21 22 23 24 25 26 27 28 29 30 31 32 33 34 35 36 37 38 39 40 41 42 43 44 45 46 47 48 49 50

000
ASUS43 KTOP 222008
RWRKS

WEATHER ROUNDUP FOR KANSAS
NATIONAL WEATHER SERVICE GOODLAND KS
200 PM CST SAT NOV 22 2014

NOTE:  "FAIR" INDICATES FEW OR NO CLOUDS BELOW 12,000 FEET WITH NO
SIGNIFICANT WEATHER AND/OR OBSTRUCTIONS TO VISIBILITY.

KSZ001>006-013>018-027>032-041>047-222100-
NORTHWEST KANSAS

CITY           SKY/WX    TMP DP  RH WIND       PRES   REMARKS
GOODLAND       SUNNY     68  11  11 SW18G28   29.62F
HAYS           SUNNY     64  39  39 S18       29.68F
HILL CITY      SUNNY     66  32  28 S12       29.65F
RUSSELL        SUNNY     63  44  50 S18G26    29.68F
$$

KSZ061>065-074>080-084>089-222100-
SOUTHWEST KANSAS

CITY           SKY/WX    TMP DP  RH WIND       PRES   REMARKS
DODGE CITY     SUNNY     62  35  36 S18       29.72F
ELKHART          N/A    N/A N/A N/A MISG        N/A
GARDEN CITY    SUNNY     62  30  29 SW17      29.69F
GREAT BEND     SUNNY     61  43  51 S18       29.72F
LIBERAL        SUNNY     70  30  23 S18G25    29.72F
PRATT          CLOUDY    54  52  94 S21       29.75F
$$

KSZ066>073-081>083-090>101-222100-
SOUTHEAST KANSAS

CITY           SKY/WX    TMP DP  RH WIND       PRES   REMARKS
CHANUTE        CLOUDY    59  53  80 S22G31    29.86F
COFFEYVILLE    CLOUDY    57  53  86 S14       29.88F
HUTCHINSON     CLOUDY    56  54  93 S16G24    29.76F
MEDICINE LODGE   N/A     51  51 100 S9        29.76F
NEWTON         CLOUDY    55  52  88 S18G24    29.79F
PARSONS        CLOUDY    58  53  84 S16G22    29.88F
WICHITA INTL   CLOUDY    60  55  83 S17       29.78F
WICHITA JABRA  CLOUDY    60  55  83 S13       29.78F
WICHITA MCCONL CLOUDY    60  60 100 S14       29.79F
WINFIELD       CLOUDY    60  54  80 S21       29.81F
$$

KSZ007>012-019>026-033>040-048>060-102>105-222100-
NORTHEAST KANSAS

CITY           SKY/WX    TMP DP  RH WIND       PRES   REMARKS
CONCORDIA      SUNNY     62  50  64 S13G22    29.70F
EMPORIA        CLOUDY    61  56  83 S21       29.80F
LAWRENCE       CLOUDY    58  54  86 S13       29.80F
MANHATTAN      CLOUDY    58  55  90 SW15G22   29.75F
MARYSVILLE     DRIZZLE   52  52 100 S7        29.74F
OLATHE IND     CLOUDY    59  53  80 S15       29.82F
OLATHE EXE     CLOUDY    59  53  80 S16G23    29.82F
SALINA         CLOUDY    57  52  83 S17G23    29.75F
TOPEKA BILLARD CLOUDY    59  57  93 S8        29.79F
TOPEKA FORBES  CLOUDY    59  56  89 S14       29.78F
$$


USA.gov is the U.S. government's official web portal to all federal, state and local government web resources and services.